Location: Peebles
(55.6412°N, 3.1714°W)
Time: 20:36:16
(UTC+01:00)

Explorer 7 - All Passes

Search period start: 02 October 2022 00:00
Search period end: 12 October 2022 00:00
Orbit: 482 x 667 km, 50.3° (Epoch: 02 October)

Date Brightness Start Highest point End Pass type
(mag) Time Alt. Az. Time Alt. Az. Time Alt. Az.
02 Oct - 12:26:34 10° SSW 12:30:13 22° SSE 12:33:48 10° E daylight
02 Oct - 14:05:28 10° WSW 14:09:57 40° S 14:14:16 10° E daylight
02 Oct - 15:45:29 10° WSW 15:49:54 41° S 15:54:08 10° ESE daylight
02 Oct - 17:26:03 10° W 17:29:37 22° SSW 17:33:02 10° SSE daylight
03 Oct - 12:28:25 10° SSW 12:32:25 26° SSE 12:36:22 10° E daylight
03 Oct - 14:07:44 10° WSW 14:12:15 43° S 14:16:38 10° ESE daylight
03 Oct - 15:47:52 10° W 15:52:13 37° SSW 15:56:22 10° SE daylight
03 Oct - 17:28:43 10° WSW 17:31:47 18° SW 17:34:45 10° S daylight
04 Oct - 10:52:59 10° SSE 10:55:13 13° SE 10:57:26 10° ESE daylight
04 Oct - 12:30:25 10° SW 12:34:40 31° SSE 12:38:50 10° E daylight
04 Oct - 14:10:01 10° WSW 14:14:35 44° S 14:18:58 10° ESE daylight
04 Oct - 15:50:16 10° W 15:54:29 33° SSW 15:58:31 10° SE daylight
04 Oct - 17:31:37 10° WSW 17:33:54 14° SW 17:36:08 10° S daylight
05 Oct - 10:54:12 10° S 10:57:20 17° SE 11:00:26 10° ESE daylight
05 Oct - 12:32:30 10° SW 12:36:55 36° SSE 12:41:16 10° E daylight
05 Oct - 14:12:20 10° WSW 14:16:53 44° S 14:21:17 10° ESE daylight
05 Oct - 15:52:42 10° W 15:56:43 28° SSW 16:00:34 10° SE daylight
06 Oct - 10:55:48 10° SSW 10:59:29 22° SSE 11:03:07 10° E daylight
06 Oct - 12:34:41 10° WSW 12:39:13 40° SSE 12:43:38 10° E daylight
06 Oct - 14:14:40 10° W 14:19:12 42° S 14:23:32 10° ESE daylight
06 Oct - 15:55:13 10° W 15:58:55 23° SSW 16:02:30 10° SSE daylight
07 Oct - 10:57:37 10° SSW 11:01:39 27° SSE 11:05:39 10° E daylight
07 Oct - 12:36:54 10° WSW 12:41:29 43° S 12:45:58 10° ESE daylight
07 Oct - 14:17:01 10° W 14:21:28 38° SSW 14:25:44 10° SE daylight
07 Oct - 15:57:48 10° WSW 16:01:03 19° SW 16:04:13 10° S daylight
08 Oct - 09:22:15 10° SSE 09:24:26 13° SE 09:26:37 10° ESE daylight
08 Oct - 10:59:35 10° SW 11:03:52 32° SSE 11:08:06 10° E daylight
08 Oct - 12:39:10 10° WSW 12:43:47 45° S 12:48:17 10° ESE daylight
08 Oct - 14:19:23 10° W 14:23:43 34° SSW 14:27:53 10° SE daylight
08 Oct - 16:00:37 10° WSW 16:03:09 14° SW 16:05:38 10° S daylight
09 Oct - 09:23:24 10° S 09:26:31 17° SE 09:29:37 10° ESE daylight
09 Oct - 11:01:40 10° SW 11:06:05 36° SSE 11:10:29 10° E daylight
09 Oct - 12:41:27 10° WSW 12:46:04 44° S 12:50:33 10° ESE daylight
09 Oct - 14:21:47 10° W 14:25:55 29° SSW 14:29:54 10° SE daylight
09 Oct - 16:04:09 10° WSW 16:05:12 11° SW 16:06:15 10° SSW daylight
10 Oct - 09:24:58 10° SSW 09:28:37 22° SSE 09:32:17 10° E daylight
10 Oct - 11:03:48 10° WSW 11:08:21 40° SSE 11:12:50 10° E daylight
10 Oct - 12:43:45 10° W 12:48:20 42° S 12:52:47 10° ESE daylight
10 Oct - 14:24:15 10° W 14:28:05 24° SSW 14:31:48 10° SSE daylight
11 Oct - 09:26:46 10° SSW 09:30:46 26° SSE 09:34:47 10° E daylight
11 Oct - 11:06:00 10° WSW 11:10:36 43° S 11:15:09 10° ESE daylight
11 Oct - 12:46:04 10° W 12:50:35 39° SSW 12:54:58 10° SE daylight
11 Oct - 14:26:48 10° W 14:30:12 19° SW 14:33:32 10° SSE daylight
